Regional Weather Roundup
Issued by NWS

Home | Current Version | Previous Version | Text Only | Print | Product List | Glossary On
Versions: 1 2 3 4 5 6 7 8 9 10 11 12 13 14 15 16 17 18 19 20 21 22 23 24 25 26 27 28 29 30 31 32 33 34 35 36 37 38 39 40 41 42 43 44 45 46 47 48 49 50
000
ASUS43 KTOP 270208
RWRKS

WEATHER ROUNDUP FOR KANSAS
NATIONAL WEATHER SERVICE GOODLAND KS
900 PM CDT MON JUN 26 2017

NOTE:  "FAIR" INDICATES FEW OR NO CLOUDS BELOW 12,000 FEET WITH NO
SIGNIFICANT WEATHER AND/OR OBSTRUCTIONS TO VISIBILITY.

KSZ001>006-013>018-027>032-041>047-270300-
NORTHWEST KANSAS

CITY           SKY/WX    TMP DP  RH WIND       PRES   REMARKS
GOODLAND       CLEAR     70  60  70 E12       30.10R
HAYS           PTCLDY    75  64  68 NE9       30.05R
HILL CITY      CLEAR     76  62  62 NE12      30.07S
RUSSELL        CLEAR     74  60  61 E13       30.04R
$$

KSZ061>065-074>080-084>089-270300-
SOUTHWEST KANSAS

CITY           SKY/WX    TMP DP  RH WIND       PRES   REMARKS
DODGE CITY     PTCLDY    77  62  59 S7        30.04F
ELKHART          N/A     74  52  46 SE10        N/A
GARDEN CITY    CLOUDY    79  59  50 SE8       30.03F
GREAT BEND     CLOUDY    78  64  61 NE10      30.03S
LIBERAL        PTCLDY    80  63  55 E14       30.05S
$$

KSZ066>073-081>083-090>101-270300-
SOUTHEAST KANSAS

CITY           SKY/WX    TMP DP  RH WIND       PRES   REMARKS
CHANUTE        PTCLDY    72  62  71 E7        30.05S
COFFEYVILLE    PTCLDY    74  65  73 E8        30.03R
HUTCHINSON     CLOUDY    78  59  51 NE14G23   30.02R
MEDICINE LODGE   N/A     82  61  48 SE5       30.00S
NEWTON         CLOUDY    65  63  93 NE9G16    30.06R
PARSONS        PTCLDY    73  64  73 VRB3      30.05S
WICHITA INTL   MOCLDY    79  61  53 VRB5      30.00R
WICHITA JABRA  PTCLDY    70  61  73 NE14G32   30.04R
WINFIELD       CLEAR     76  60  57 S6        30.02S
$$

KSZ007>012-019>026-033>040-048>060-102>105-270300-
NORTHEAST KANSAS

CITY           SKY/WX    TMP DP  RH WIND       PRES   REMARKS
CONCORDIA      CLEAR     68  62  81 E9        30.09R
EMPORIA        CLOUDY    72  60  66 E15       30.08R
LAWRENCE       CLOUDY    64  62  93 CALM      30.10R
MANHATTAN      CLEAR     66  62  87 E8        30.08S
MARYSVILLE     MOCLDY    64  63  94 E3        30.11R
OLATHE IND     LGT RAIN  63  60  90 S8        30.09F
OLATHE EXE     LGT RAIN  64  59  83 SE9       30.08F
SALINA         CLEAR     74  62  66 E13       30.04S
TOPEKA BILLARD PTCLDY    65  63  93 E5        30.10R
TOPEKA FORBES  PTCLDY    66  62  87 E6        30.10R
$$




USA.gov is the U.S. government's official web portal to all federal, state and local government web resources and services.